Miscellaneous Local Product
Issued by NWS Hastings, NE

Home | Current Version | Previous Version | Graphics & Text | Print | Product List | Glossary On
Versions: 1 2 3 4 5 6 7 8 9 10 11 12 13 14 15 16 17 18 19 20 21 22 23 24 25 26 27 28 29 30 31 32 33 34 35 36 37 38 39 40 41 42 43 44 45 46 47 48 49 50
019
AXUS43 KGID 210402
MISGRI

GID CWA HOURLY WEATHER ROUNDUP
NATIONAL WEATHER SERVICE HASTINGS NE
1000 PM CST FRI JAN 20 2017

NOTE: "FAIR" INDICATES FEW OR NO CLOUDS BELOW 12,000 FEET WITH NO
SIGNIFICANT WEATHER AND/OR OBSTRUCTIONS TO VISIBILITY.

...SOUTH CENTRAL NEBRASKA...

CITY           SKY/WX    TMP DP  RH WIND       PRES   REMARKS
GRAND ISLAND   FOG       38  38 100 S5        29.39S VSB 1   WCI  34
HASTINGS       CLOUDY    38  37  97 CALM      29.40S FOG
KEARNEY        CLOUDY    37 -11  12 S3        29.39F
ORD            FOG       37  35  92 SW7       29.37F VSB 1   WCI  32
YORK           FOG       39  39 100 CALM      29.40F VSB 1/4
AURORA         FOG       39  39 100 SW5       29.39F VSB 3/4
LEXINGTON      CLOUDY    36  34  92 SW6       29.39F FOG     WCI  31
HOLDREGE       CLOUDY    36  35  97 W9        29.39S WCI  29
HEBRON         LGT RAIN  37  37 100 CALM      29.41S VSB 1/4

...NEBRASKA PANHANDLE...

CITY           SKY/WX    TMP DP  RH WIND       PRES   REMARKS
CHADRON        CLOUDY    35  32  88 NW13      29.38S WCI  26
ALLIANCE       CLOUDY    34  32  92 W7        29.38F WCI  28
SCOTTSBLUFF    CLOUDY    34  31  88 W6        29.40S WCI  29
SIDNEY         CLOUDY    34  30  85 NW9       29.41F WCI  27

...WESTERN AND NORTH CENTRAL NEBRASKA...

CITY           SKY/WX    TMP DP  RH WIND       PRES   REMARKS
VALENTINE      MOCLDY    36  29  75 W7        29.34F WCI  30
AINSWORTH      CLOUDY    34  31  90 SW6       29.35S WCI  29
ONEILL         CLOUDY    39  39  99 S5        29.38S FOG
BROKEN BOW     CLOUDY    34  33  96 W3        29.37S FOG
IMPERIAL       CLOUDY    36  32  85 NW9       29.42S WCI  29
NORTH PLATTE   LGT RAIN  36  32  85 N6        29.41R WCI  31
MCCOOK         CLOUDY    38  36  92 W6        29.41R WCI  33

...EASTERN NEBRASKA...

CITY           SKY/WX    TMP DP  RH WIND       PRES   REMARKS
NORFOLK        CLOUDY    38  37  97 SE9       29.39F WCI  31
SO SIOUX CITY  LGT RAIN  40  39  97 SE7       29.43F
TEKAMAH        CLOUDY    37  36  96 CALM      29.43F FOG
COLUMBUS       CLOUDY    39  37  93 SE5       29.41F
ALBION         LGT RAIN N/A N/A N/A S3        29.39F VSB 1/2
OMAHA EPPLEY   CLOUDY    41  38  89 SE5       29.43F FOG
OFFUTT AFB     FOG       41  41 100 E6        29.42F VSB 3/4
MILLARD        DRZL/FOG  43  42  97 E3        29.42F VSB 1/2
LINCOLN        CLOUDY    42  42 100 SW3       29.42F FOG
NEBRASKA CITY  LGT RAIN  41  41 100 S3        29.42F VSB 1/4
BEATRICE       RAIN      44  44 100 SE5       29.40F
FALLS CITY     LGT RAIN  45  45 100 S3        29.43S

...NORTHERN KANSAS...

CITY           SKY/WX    TMP DP  RH WIND       PRES   REMARKS
GOODLAND       PTCLDY    35  33  92 W13       29.44S WCI  26
HILL CITY      LGT RAIN  40  38  93 W9        29.43S WCI  34
NORTON         DRIZZLE   36  34  93 W8        29.42  WCI  29
PHILLIPSBURG   CLOUDY    36  36 100 CALM      29.43S FOG
SMITH CENTER   FOG       37  37 100 SW5       29.43R VSB 3/4 WCI  34
HAYS           CLOUDY    37  35  92 W8        29.45R WCI  31
RUSSELL        CLOUDY    41  38  89 W8        29.42R
CONCORDIA      FOG       41  41 100 CALM      29.40F VSB 1/2
SALINA         FOG       37  36  96 CALM      29.43S VSB 1
TOPEKA         CLOUDY    43  41  93 CALM      29.44F



USA.gov is the U.S. government's official web portal to all federal, state and local government web resources and services.